Location: Newark
(37.8444°N, 127.0614°E)
Time: 19:09:43
(UTC+00:00)

Hubble Space Telescope - Visible Passes

Search period start: 20 November 2019 00:00
Search period end: 30 November 2019 00:00
Orbit: 536 x 540 km, 28.5° (Epoch: 19 November)

Date Brightness Start Highest point End Pass type
(mag) Time Alt. Az. Time Alt. Az. Time Alt. Az.
20 Nov 2.7 09:58:38 10° SSW 10:01:25 18° SSE 10:02:02 17° SSE visible
21 Nov 2.7 09:47:45 10° SW 09:50:43 19° S 09:52:03 17° SE visible
22 Nov 2.7 09:36:57 10° SW 09:40:02 20° S 09:42:05 15° SE visible
23 Nov 2.7 09:26:11 10° SW 09:29:22 21° S 09:32:07 12° SE visible
23 Nov 3.8 11:07:01 10° SW 11:07:28 12° SW 11:07:28 12° SW visible
24 Nov 2.7 09:15:28 10° SW 09:18:40 22° S 09:21:53 10° SE visible
24 Nov 3.5 10:56:31 10° SW 10:57:33 14° SW 10:57:33 14° SW visible
25 Nov 2.8 09:04:47 10° SW 09:08:00 22° S 09:11:13 10° SE visible
25 Nov 3.4 10:46:06 10° SW 10:47:41 15° SSW 10:47:41 15° SSW visible
26 Nov 2.9 08:54:08 10° SW 08:57:19 21° S 09:00:29 10° SE visible
26 Nov 3.3 10:35:47 10° SW 10:37:52 14° SSW 10:37:53 14° SSW visible
27 Nov 3.0 08:43:32 10° SW 08:46:38 21° S 08:49:44 10° SE visible
27 Nov 3.5 10:25:43 10° SW 10:27:09 12° SSW 10:28:12 11° S visible
